| time (UTC) | temp F | wind direction | speed MPH | gust MPH | rain 1hr in | rain 24hr in | rain mn in | humidity % | barometer mb |
| 20260503021829 | 54 | 351 | 1.0 | 2.0 | 0.00 | 0.00 | 0.00 | 92 | 1005.4 |
| 20260503021325 | 54 | 0 | 1.0 | 1.0 | 0.00 | 0.00 | 0.00 | 92 | 1005.7 |
| 20260503020823 | 54 | 353 | 0.0 | 0.0 | 0.00 | 0.00 | 0.00 | 92 | 1005.6 |
| 20260503020321 | 54 | 352 | 0.0 | 0.0 | 0.00 | 0.00 | 0.00 | 91 | 1005.4 |
| 20260503015817 | 54 | 351 | 0.0 | 0.0 | 0.00 | 0.00 | 0.00 | 91 | 1005.6 |
| 20260503015314 | 54 | 349 | 0.0 | 1.0 | 0.00 | 0.00 | 0.00 | 91 | 1005.6 |
| 20260503014809 | 55 | 345 | 1.0 | 1.0 | 0.00 | 0.00 | 0.00 | 90 | 1005.7 |
| 20260503014307 | 55 | 354 | 0.0 | 0.0 | 0.00 | 0.00 | 0.00 | 90 | 1005.5 |
| 20260503013804 | 54 | 355 | 0.0 | 0.0 | 0.00 | 0.00 | 0.00 | 90 | 1005.5 |
| 20260503013302 | 54 | 356 | 0.0 | 0.0 | 0.00 | 0.00 | 0.00 | 90 | 1005.7 |
| 20260503012759 | 54 | 356 | 0.0 | 0.0 | 0.00 | 0.00 | 0.00 | 91 | 1005.5 |
| 20260503012256 | 54 | 355 | 0.0 | 0.0 | 0.00 | 0.00 | 0.00 | 90 | 1005.6 |
| 20260503011753 | 54 | 352 | 0.0 | 0.0 | 0.00 | 0.00 | 0.00 | 90 | 1005.8 |
| 20260503011250 | 54 | 355 | 0.0 | 0.0 | 0.00 | 0.00 | 0.00 | 90 | 1005.9 |
| 20260503010746 | 54 | 351 | 0.0 | 0.0 | 0.00 | 0.00 | 0.00 | 90 | 1005.8 |
| 20260503010243 | 54 | 350 | 0.0 | 0.0 | 0.00 | 0.00 | 0.00 | 90 | 1005.9 |
| 20260503005740 | 54 | 348 | 0.0 | 1.0 | 0.00 | 0.00 | 0.00 | 90 | 1006.0 |
| 20260503005238 | 54 | 349 | 0.0 | 1.0 | 0.00 | 0.00 | 0.00 | 90 | 1006.0 |
| 20260503004733 | 54 | 337 | 1.0 | 2.0 | 0.00 | 0.00 | 0.00 | 90 | 1005.9 |
| 20260503004232 | 54 | 350 | 1.0 | 1.0 | 0.00 | 0.00 | 0.00 | 91 | 1005.9 |
| 20260503003729 | 54 | 330 | 2.0 | 2.0 | 0.00 | 0.00 | 0.00 | 90 | 1006.0 |
| 20260503003226 | 54 | 346 | 1.0 | 1.0 | 0.00 | 0.00 | 0.00 | 91 | 1006.0 |
| 20260503002722 | 54 | 334 | 0.0 | 1.0 | 0.00 | 0.00 | 0.00 | 91 | 1006.0 |
| 20260503002219 | 54 | 346 | 1.0 | 2.0 | 0.00 | 0.00 | 0.00 | 91 | 1005.9 |
| 20260503001715 | 54 | 336 | 3.0 | 3.0 | 0.00 | 0.00 | 0.00 | 90 | 1005.7 |
| 20260503001212 | 55 | 350 | 1.0 | 2.0 | 0.00 | 0.00 | 0.00 | 89 | 1005.8 |
| 20260503000710 | 55 | 344 | 1.0 | 1.0 | 0.00 | 0.00 | 0.00 | 89 | 1005.8 |
| 20260503000207 | 55 | 339 | 1.0 | 1.0 | 0.00 | 0.00 | 0.00 | 89 | 1005.8 |
| 20260502235704 | 55 | 335 | 1.0 | 1.0 | 0.00 | 0.00 | 0.00 | 89 | 1005.9 |
| 20260502235202 | 55 | 350 | 0.0 | 0.0 | 0.00 | 0.00 | 0.00 | 89 | 1006.2 |
| 20260502234657 | 55 | 346 | 1.0 | 2.0 | 0.00 | 0.00 | 0.00 | 89 | 1006.1 |
| 20260502234155 | 55 | 322 | 1.0 | 2.0 | 0.00 | 0.00 | 0.00 | 89 | 1005.9 |
| 20260502233651 | 55 | 335 | 1.0 | 1.0 | 0.00 | 0.00 | 0.00 | 88 | 1005.9 |
| 20260502233148 | 56 | 341 | 2.0 | 2.0 | 0.00 | 0.00 | 0.00 | 88 | 1006.1 |
| 20260502232644 | 56 | 346 | 1.0 | 2.0 | 0.00 | 0.00 | 0.00 | 88 | 1005.9 |
| 20260502232142 | 56 | 348 | 1.0 | 1.0 | 0.00 | 0.00 | 0.00 | 88 | 1006.1 |
| 20260502231638 | 56 | 339 | 1.0 | 1.0 | 0.00 | 0.00 | 0.00 | 87 | 1006.2 |
| 20260502231136 | 56 | 0 | 2.0 | 2.0 | 0.00 | 0.00 | 0.00 | 88 | 1006.3 |
| 20260502230634 | 56 | 335 | 2.0 | 2.0 | 0.00 | 0.00 | 0.00 | 87 | 1006.3 |
| 20260502230132 | 56 | 339 | 2.0 | 2.0 | 0.00 | 0.00 | 0.00 | 87 | 1006.4 |
| 20260502225627 | 55 | 339 | 1.0 | 1.0 | 0.00 | 0.00 | 0.00 | 87 | 1006.3 |
| 20260502225125 | 55 | 348 | 0.0 | 1.0 | 0.00 | 0.00 | 0.00 | 88 | 1006.4 |
| 20260502224621 | 55 | 345 | 2.0 | 2.0 | 0.00 | 0.00 | 0.00 | 87 | 1006.5 |
| 20260502224118 | 56 | 338 | 1.0 | 1.0 | 0.00 | 0.00 | 0.00 | 87 | 1006.5 |
| 20260502223615 | 56 | 72 | 1.0 | 1.0 | 0.00 | 0.00 | 0.00 | 86 | 1006.4 |
| 20260502223114 | 56 | 348 | 1.0 | 1.0 | 0.00 | 0.00 | 0.00 | 87 | 1006.6 |
| 20260502222611 | 56 | 340 | 0.0 | 0.0 | 0.00 | 0.00 | 0.00 | 87 | 1006.5 |
| 20260502222107 | 56 | 329 | 1.0 | 1.0 | 0.00 | 0.00 | 0.00 | 86 | 1006.6 |
| 20260502221603 | 57 | 346 | 1.0 | 1.0 | 0.00 | 0.00 | 0.00 | 86 | 1006.8 |
| 20260502221100 | 57 | 341 | 0.0 | 1.0 | 0.00 | 0.00 | 0.00 | 86 | 1006.9 |
| 20260502220556 | 57 | 315 | 1.0 | 1.0 | 0.00 | 0.00 | 0.00 | 86 | 1006.9 |
| 20260502220053 | 57 | 301 | 1.0 | 1.0 | 0.00 | 0.00 | 0.00 | 85 | 1006.8 |
| 20260502215550 | 57 | 333 | 0.0 | 1.0 | 0.00 | 0.00 | 0.00 | 86 | 1006.9 |
| 20260502215047 | 56 | 252 | 2.0 | 2.0 | 0.00 | 0.00 | 0.00 | 85 | 1006.8 |
| 20260502214544 | 56 | 309 | 1.0 | 1.0 | 0.00 | 0.00 | 0.00 | 86 | 1007.0 |
| 20260502214041 | 56 | 314 | 1.0 | 1.0 | 0.00 | 0.00 | 0.00 | 86 | 1007.1 |
| 20260502213538 | 56 | 319 | 1.0 | 1.0 | 0.00 | 0.00 | 0.00 | 87 | 1007.1 |
| 20260502213036 | 55 | 292 | 1.0 | 1.0 | 0.00 | 0.00 | 0.00 | 87 | 1007.0 |
| 20260502212534 | 55 | 335 | 2.0 | 2.0 | 0.00 | 0.00 | 0.00 | 87 | 1007.3 |
| 20260502212032 | 55 | 349 | 0.0 | 0.0 | 0.00 | 0.00 | 0.00 | 87 | 1007.2 |
| 20260502211527 | 55 | 344 | 0.0 | 1.0 | 0.00 | 0.00 | 0.00 | 88 | 1007.2 |
| 20260502211025 | 55 | 332 | 1.0 | 2.0 | 0.00 | 0.00 | 0.00 | 88 | 1007.3 |
| 20260502210521 | 55 | 341 | 2.0 | 2.0 | 0.00 | 0.00 | 0.00 | 87 | 1007.2 |
| 20260502210018 | 55 | 348 | 1.0 | 1.0 | 0.00 | 0.00 | 0.00 | 88 | 1007.3 |
| 20260502205515 | 55 | 342 | 2.0 | 2.0 | 0.00 | 0.00 | 0.00 | 87 | 1007.4 |
| 20260502205012 | 55 | 351 | 1.0 | 1.0 | 0.00 | 0.00 | 0.00 | 87 | 1007.3 |
| 20260502204509 | 55 | 329 | 2.0 | 2.0 | 0.00 | 0.00 | 0.00 | 88 | 1007.5 |
| 20260502204007 | 55 | 313 | 3.0 | 5.0 | 0.00 | 0.00 | 0.00 | 87 | 1007.4 |
| 20260502203503 | 55 | 337 | 0.0 | 1.0 | 0.00 | 0.00 | 0.00 | 88 | 1007.4 |
| 20260502203000 | 55 | 342 | 2.0 | 2.0 | 0.00 | 0.00 | 0.00 | 87 | 1007.7 |
| 20260502202456 | 55 | 318 | 3.0 | 3.0 | 0.00 | 0.00 | 0.00 | 88 | 1007.5 |
| 20260502201955 | 55 | 325 | 2.0 | 2.0 | 0.00 | 0.00 | 0.00 | 87 | 1007.5 |
| 20260502201450 | 56 | 339 | 2.0 | 2.0 | 0.00 | 0.00 | 0.00 | 87 | 1007.8 |
| 20260502200947 | 56 | 336 | 0.0 | 0.0 | 0.00 | 0.00 | 0.00 | 88 | 1007.5 |
| 20260502200443 | 56 | 357 | 1.0 | 1.0 | 0.00 | 0.00 | 0.00 | 87 | 1007.6 |
| 20260502195941 | 56 | 347 | 1.0 | 1.0 | 0.00 | 0.00 | 0.00 | 88 | 1007.5 |
| 20260502195438 | 56 | 348 | 0.0 | 1.0 | 0.00 | 0.00 | 0.00 | 88 | 1007.5 |
| 20260502194934 | 56 | 330 | 1.0 | 2.0 | 0.00 | 0.00 | 0.00 | 88 | 1007.6 |
| 20260502194431 | 56 | 347 | 0.0 | 1.0 | 0.00 | 0.00 | 0.00 | 88 | 1007.7 |
| 20260502193927 | 56 | 345 | 1.0 | 1.0 | 0.00 | 0.00 | 0.00 | 88 | 1007.5 |
| 20260502193424 | 56 | 349 | 0.0 | 1.0 | 0.00 | 0.00 | 0.00 | 89 | 1007.6 |
| 20260502192920 | 55 | 352 | 0.0 | 0.0 | 0.00 | 0.00 | 0.00 | 89 | 1007.6 |
| 20260502192417 | 55 | 358 | 2.0 | 2.0 | 0.00 | 0.00 | 0.00 | 89 | 1007.6 |
| 20260502191914 | 55 | 355 | 1.0 | 1.0 | 0.00 | 0.00 | 0.00 | 89 | 1007.8 |
| 20260502191412 | 55 | 357 | 1.0 | 1.0 | 0.00 | 0.00 | 0.00 | 89 | 1007.7 |
| 20260502190909 | 55 | 348 | 0.0 | 1.0 | 0.00 | 0.00 | 0.00 | 90 | 1008.0 |
| 20260502190406 | 55 | 347 | 1.0 | 1.0 | 0.00 | 0.00 | 0.00 | 90 | 1008.0 |
| 20260502185902 | 55 | 335 | 2.0 | 2.0 | 0.00 | 0.00 | 0.00 | 89 | 1008.1 |
| 20260502185357 | 55 | 346 | 0.0 | 0.0 | 0.00 | 0.00 | 0.00 | 90 | 1007.9 |
| 20260502184855 | 54 | 339 | 1.0 | 1.0 | 0.00 | 0.00 | 0.00 | 90 | 1008.0 |
| 20260502184350 | 54 | 345 | 0.0 | 1.0 | 0.00 | 0.00 | 0.00 | 90 | 1008.0 |
| 20260502183847 | 54 | 347 | 1.0 | 1.0 | 0.00 | 0.00 | 0.00 | 91 | 1008.1 |
| 20260502183343 | 54 | 342 | 1.0 | 1.0 | 0.00 | 0.00 | 0.00 | 91 | 1008.4 |
| 20260502182838 | 54 | 345 | 1.0 | 1.0 | 0.00 | 0.00 | 0.00 | 91 | 1008.2 |
| 20260502182334 | 54 | 340 | 1.0 | 1.0 | 0.00 | 0.00 | 0.00 | 89 | 1008.2 |
| 20260502181831 | 54 | 348 | 0.0 | 0.0 | 0.00 | 0.00 | 0.00 | 89 | 1008.6 |
| 20260502181330 | 54 | 324 | 1.0 | 1.0 | 0.00 | 0.00 | 0.00 | 88 | 1008.4 |
| 20260502180827 | 54 | 328 | 0.0 | 0.0 | 0.00 | 0.00 | 0.00 | 88 | 1008.6 |
| 20260502180324 | 54 | 341 | 0.0 | 0.0 | 0.00 | 0.00 | 0.00 | 89 | 1008.5 |
| 20260502170243 | 52 | 347 | 0.0 | 0.0 | 0.00 | 0.00 | 0.00 | 92 | 1008.1 |
| 20260502164231 | 52 | 321 | 0.0 | 1.0 | 0.00 | 0.00 | 0.00 | 94 | 1008.3 |
| 20260502163726 | 52 | 329 | 0.0 | 0.0 | 0.00 | 0.00 | 0.00 | 94 | 1008.4 |
| 20260502163223 | 52 | 286 | 1.0 | 2.0 | 0.00 | 0.00 | 0.00 | 95 | 1008.6 |
| 20260502162720 | 52 | 345 | 0.0 | 0.0 | 0.00 | 0.00 | 0.00 | 95 | 1008.4 |
| 20260502162217 | 52 | 349 | 0.0 | 0.0 | 0.00 | 0.00 | 0.00 | 95 | 1008.2 |
| 20260502161714 | 52 | 352 | 0.0 | 0.0 | 0.00 | 0.00 | 0.00 | 95 | 1008.4 |
| 20260502161210 | 52 | 348 | 0.0 | 0.0 | 0.00 | 0.00 | 0.00 | 94 | 1008.2 |
| 20260502160709 | 52 | 348 | 0.0 | 0.0 | 0.00 | 0.00 | 0.00 | 94 | 1008.3 |
| 20260502160208 | 52 | 346 | 1.0 | 1.0 | 0.00 | 0.00 | 0.00 | 94 | 1008.3 |
| 20260502152126 | 51 | 349 | 0.0 | 0.0 | 0.00 | 0.00 | 0.00 | 95 | 1007.8 |
| 20260502151623 | 51 | 339 | 1.0 | 1.0 | 0.00 | 0.00 | 0.00 | 95 | 1008.1 |
| 20260502151121 | 51 | 346 | 1.0 | 1.0 | 0.00 | 0.00 | 0.00 | 96 | 1008.2 |
| 20260502150618 | 51 | 350 | 0.0 | 0.0 | 0.00 | 0.00 | 0.00 | 96 | 1007.9 |
| 20260502150114 | 51 | 347 | 0.0 | 0.0 | 0.00 | 0.00 | 0.00 | 96 | 1007.9 |
| 20260502130503 | 51 | 1 | 0.0 | 0.0 | 0.00 | 0.00 | 0.00 | 95 | 1008.1 |
| 20260502123445 | 51 | 36 | 1.0 | 1.0 | 0.00 | 0.00 | 0.00 | 95 | 1008.1 |
| 20260502122943 | 51 | 31 | 0.0 | 1.0 | 0.00 | 0.00 | 0.00 | 94 | 1008.4 |
| 20260502122438 | 51 | 25 | 0.0 | 1.0 | 0.00 | 0.00 | 0.00 | 94 | 1008.4 |
| 20260502121937 | 51 | 22 | 0.0 | 0.0 | 0.00 | 0.00 | 0.00 | 94 | 1008.6 |
| 20260502121433 | 51 | 31 | 1.0 | 1.0 | 0.00 | 0.00 | 0.00 | 94 | 1008.3 |
| 20260502120931 | 51 | 1 | 0.0 | 0.0 | 0.00 | 0.00 | 0.00 | 93 | 1008.3 |
| 20260502120427 | 51 | 357 | 0.0 | 0.0 | 0.00 | 0.00 | 0.00 | 93 | 1008.2 |
| 20260502115925 | 51 | 15 | 0.0 | 0.0 | 0.00 | 0.00 | 0.00 | 93 | 1008.3 |
| 20260502115422 | 51 | 16 | 0.0 | 0.0 | 0.00 | 0.00 | 0.00 | 93 | 1008.5 |
| 20260502114918 | 51 | 18 | 0.0 | 1.0 | 0.00 | 0.00 | 0.00 | 94 | 1008.6 |
| 20260502114415 | 51 | 15 | 0.0 | 0.0 | 0.00 | 0.00 | 0.00 | 95 | 1008.6 |
| 20260502113912 | 51 | 15 | 0.0 | 0.0 | 0.00 | 0.00 | 0.00 | 95 | 1008.5 |
| 20260502113410 | 51 | 5 | 0.0 | 0.0 | 0.00 | 0.00 | 0.00 | 95 | 1008.6 |
| 20260502112908 | 51 | 12 | 0.0 | 0.0 | 0.00 | 0.00 | 0.00 | 94 | 1008.4 |
| 20260502112405 | 51 | 12 | 0.0 | 0.0 | 0.00 | 0.00 | 0.00 | 94 | 1008.6 |
| 20260502111902 | 51 | 9 | 0.0 | 0.0 | 0.00 | 0.00 | 0.00 | 93 | 1008.7 |
| 20260502111359 | 51 | 12 | 0.0 | 0.0 | 0.00 | 0.00 | 0.00 | 94 | 1008.6 |
| 20260502110857 | 51 | 13 | 0.0 | 0.0 | 0.00 | 0.00 | 0.00 | 94 | 1008.7 |
| 20260502110355 | 51 | 349 | 0.0 | 0.0 | 0.00 | 0.00 | 0.00 | 94 | 1008.7 |
| 20260502105852 | 51 | 17 | 0.0 | 0.0 | 0.00 | 0.00 | 0.00 | 95 | 1008.9 |
| 20260502105349 | 51 | 10 | 0.0 | 0.0 | 0.00 | 0.00 | 0.00 | 96 | 1008.8 |
| 20260502104847 | 51 | 10 | 0.0 | 0.0 | 0.00 | 0.00 | 0.00 | 96 | 1008.6 |
| 20260502104344 | 51 | 20 | 1.0 | 1.0 | 0.00 | 0.00 | 0.00 | 96 | 1008.7 |
| 20260502103840 | 51 | 13 | 0.0 | 0.0 | 0.00 | 0.00 | 0.00 | 97 | 1008.7 |
| 20260502103338 | 51 | 13 | 0.0 | 0.0 | 0.00 | 0.00 | 0.00 | 96 | 1008.9 |
| 20260502102835 | 51 | 13 | 0.0 | 0.0 | 0.00 | 0.00 | 0.00 | 96 | 1008.9 |
| 20260502102331 | 50 | 12 | 0.0 | 0.0 | 0.00 | 0.00 | 0.00 | 97 | 1009.1 |
| 20260502101829 | 51 | 14 | 0.0 | 0.0 | 0.00 | 0.00 | 0.00 | 97 | 1009.3 |
| 20260502101327 | 51 | 14 | 0.0 | 0.0 | 0.00 | 0.00 | 0.00 | 98 | 1009.2 |
| 20260502100825 | 51 | 14 | 0.0 | 0.0 | 0.00 | 0.00 | 0.00 | 98 | 1009.2 |
| 20260502100325 | 51 | 16 | 0.0 | 0.0 | 0.00 | 0.00 | 0.00 | 98 | 1009.4 |
| 20260502091258 | 51 | 10 | 0.0 | 0.0 | 0.00 | 0.00 | 0.00 | 99 | 1009.7 |
| 20260502090755 | 51 | 10 | 0.0 | 0.0 | 0.00 | 0.00 | 0.00 | 99 | 1009.6 |
| 20260502090252 | 51 | 10 | 0.0 | 0.0 | 0.00 | 0.00 | 0.00 | 99 | 1009.7 |
| 20260502071153 | 51 | 9 | 0.0 | 0.0 | 0.00 | 0.00 | 0.00 | 98 | 1010.9 |
| 20260502070651 | 51 | 9 | 0.0 | 0.0 | 0.00 | 0.00 | 0.00 | 98 | 1011.1 |
| 20260502070149 | 51 | 9 | 0.0 | 0.0 | 0.00 | 0.00 | 0.00 | 98 | 1011.2 |
| 20260502065647 | 51 | 9 | 0.0 | 0.0 | 0.00 | 0.00 | 0.00 | 98 | 1011.1 |
| 20260502065143 | 51 | 9 | 0.0 | 0.0 | 0.00 | 0.00 | 0.00 | 98 | 1011.2 |
| 20260502064643 | 51 | 9 | 0.0 | 0.0 | 0.00 | 0.00 | 0.00 | 98 | 1011.0 |
| 20260502064139 | 51 | 9 | 0.0 | 0.0 | 0.00 | 0.00 | 0.00 | 98 | 1011.2 |
| 20260502063637 | 51 | 9 | 0.0 | 0.0 | 0.00 | 0.00 | 0.00 | 98 | 1011.3 |
| 20260502063135 | 52 | 9 | 0.0 | 0.0 | 0.00 | 0.00 | 0.00 | 98 | 1011.0 |
| 20260502062631 | 51 | 9 | 0.0 | 0.0 | 0.00 | 0.00 | 0.00 | 98 | 1011.2 |
| 20260502062129 | 51 | 9 | 0.0 | 0.0 | 0.00 | 0.00 | 0.00 | 98 | 1011.2 |
| 20260502061627 | 51 | 9 | 0.0 | 0.0 | 0.00 | 0.00 | 0.00 | 98 | 1011.2 |
| 20260502061125 | 51 | 9 | 0.0 | 0.0 | 0.00 | 0.00 | 0.00 | 98 | 1011.2 |
| 20260502060624 | 51 | 9 | 0.0 | 0.0 | 0.00 | 0.00 | 0.00 | 98 | 1011.3 |
| 20260502060121 | 52 | 9 | 0.0 | 0.0 | 0.00 | 0.00 | 0.00 | 98 | 1011.7 |
| 20260502055619 | 51 | 9 | 0.0 | 0.0 | 0.00 | 0.00 | 0.00 | 97 | 1011.3 |
| 20260502055117 | 52 | 9 | 0.0 | 0.0 | 0.00 | 0.00 | 0.00 | 97 | 1011.3 |
| 20260502054616 | 52 | 8 | 0.0 | 0.0 | 0.00 | 0.00 | 0.00 | 97 | 1011.6 |
| 20260502054113 | 52 | 8 | 0.0 | 0.0 | 0.00 | 0.00 | 0.00 | 97 | 1011.7 |
| 20260502053610 | 52 | 8 | 0.0 | 0.0 | 0.00 | 0.00 | 0.00 | 97 | 1011.6 |
| 20260502053107 | 52 | 8 | 0.0 | 0.0 | 0.00 | 0.00 | 0.00 | 97 | 1011.6 |
| 20260502052605 | 52 | 6 | 0.0 | 0.0 | 0.00 | 0.00 | 0.00 | 97 | 1011.7 |
| 20260502052103 | 52 | 5 | 0.0 | 0.0 | 0.00 | 0.00 | 0.00 | 97 | 1011.6 |
| 20260502051601 | 52 | 5 | 0.0 | 0.0 | 0.00 | 0.00 | 0.00 | 97 | 1011.8 |
| 20260502051059 | 52 | 5 | 0.0 | 0.0 | 0.00 | 0.00 | 0.00 | 97 | 1011.7 |
| 20260502050554 | 52 | 5 | 0.0 | 0.0 | 0.00 | 0.00 | 0.00 | 97 | 1011.6 |
| 20260502050052 | 52 | 5 | 0.0 | 0.0 | 0.00 | 0.00 | 0.00 | 97 | 1011.7 |
| 20260502045548 | 52 | 5 | 0.0 | 0.0 | 0.00 | 0.00 | 0.00 | 97 | 1011.7 |
| 20260502045045 | 52 | 5 | 0.0 | 0.0 | 0.00 | 0.00 | 0.00 | 97 | 1011.9 |
| 20260502044542 | 52 | 2 | 0.0 | 0.0 | 0.00 | 0.00 | 0.00 | 97 | 1011.7 |
| 20260502044038 | 52 | 2 | 0.0 | 0.0 | 0.00 | 0.00 | 0.00 | 97 | 1011.8 |
| 20260502043536 | 52 | 2 | 0.0 | 0.0 | 0.00 | 0.00 | 0.00 | 97 | 1011.8 |
| 20260502043032 | 52 | 2 | 0.0 | 0.0 | 0.00 | 0.00 | 0.00 | 97 | 1011.9 |
| 20260502042527 | 52 | 6 | 0.0 | 0.0 | 0.00 | 0.00 | 0.00 | 97 | 1011.9 |
| 20260502042025 | 52 | 8 | 0.0 | 0.0 | 0.00 | 0.00 | 0.00 | 96 | 1011.8 |
| 20260502041523 | 52 | 343 | 0.0 | 0.0 | 0.00 | 0.00 | 0.00 | 96 | 1012.0 |
| 20260502041020 | 52 | 343 | 0.0 | 0.0 | 0.00 | 0.00 | 0.00 | 96 | 1011.8 |
| 20260502040516 | 52 | 343 | 0.0 | 0.0 | 0.00 | 0.00 | 0.00 | 95 | 1011.6 |
| 20260502040014 | 52 | 343 | 0.0 | 0.0 | 0.00 | 0.00 | 0.00 | 95 | 1011.8 |
| 20260502035509 | 52 | 343 | 0.0 | 0.0 | 0.00 | 0.00 | 0.00 | 95 | 1011.7 |
| 20260502035007 | 53 | 343 | 0.0 | 0.0 | 0.00 | 0.00 | 0.00 | 95 | 1011.6 |
| 20260502034505 | 53 | 342 | 0.0 | 0.0 | 0.00 | 0.00 | 0.00 | 95 | 1011.5 |
| 20260502034003 | 53 | 342 | 0.0 | 0.0 | 0.00 | 0.00 | 0.00 | 94 | 1011.5 |
| 20260502033501 | 53 | 343 | 0.0 | 0.0 | 0.00 | 0.00 | 0.00 | 94 | 1011.3 |
| 20260502032957 | 53 | 343 | 0.0 | 0.0 | 0.00 | 0.00 | 0.00 | 93 | 1011.4 |
| 20260502032454 | 53 | 342 | 1.0 | 1.0 | 0.00 | 0.00 | 0.00 | 93 | 1011.5 |
| 20260502031950 | 53 | 341 | 0.0 | 0.0 | 0.00 | 0.00 | 0.00 | 93 | 1011.5 |
| 20260502031449 | 53 | 343 | 0.0 | 0.0 | 0.00 | 0.00 | 0.00 | 93 | 1011.4 |
| 20260502030947 | 53 | 342 | 1.0 | 1.0 | 0.00 | 0.00 | 0.00 | 93 | 1011.4 |
| 20260502030445 | 53 | 336 | 0.0 | 0.0 | 0.00 | 0.00 | 0.00 | 94 | 1011.4 |
| 20260502025942 | 53 | 336 | 0.0 | 0.0 | 0.00 | 0.00 | 0.00 | 93 | 1011.3 |
| 20260502025439 | 53 | 335 | 0.0 | 0.0 | 0.00 | 0.00 | 0.00 | 93 | 1011.2 |
| 20260502024937 | 53 | 343 | 0.0 | 0.0 | 0.00 | 0.00 | 0.00 | 93 | 1011.3 |
| 20260502024435 | 53 | 342 | 1.0 | 1.0 | 0.00 | 0.00 | 0.00 | 93 | 1011.2 |
| 20260502023933 | 53 | 342 | 0.0 | 0.0 | 0.00 | 0.00 | 0.00 | 93 | 1011.1 |
| 20260502023430 | 53 | 338 | 0.0 | 0.0 | 0.00 | 0.00 | 0.00 | 93 | 1010.9 |
| 20260502022928 | 54 | 341 | 0.0 | 0.0 | 0.00 | 0.00 | 0.00 | 94 | 1011.0 |
| 20260502022424 | 53 | 341 | 0.0 | 0.0 | 0.00 | 0.00 | 0.00 | 93 | 1011.0 |
| 20260502021921 | 54 | 346 | 0.0 | 0.0 | 0.00 | 0.00 | 0.00 | 94 | 1010.9 |